| time (UTC) | temp F | wind direction | speed MPH | gust MPH | rain 1hr in | rain 24hr in | rain mn in | humidity % | barometer mb |
| 20260905204754 | 78 | 123 | 3.0 | 8.0 | 0.00 | 0.04 | 0.04 | 61 | 1013.4 |
| 20260905204251 | 78 | 51 | 3.0 | 8.0 | 0.00 | 0.04 | 0.04 | 61 | 1013.8 |
| 20260905203749 | 78 | 126 | 2.0 | 8.0 | 0.00 | 0.04 | 0.04 | 61 | 1013.8 |
| 20260905203247 | 78 | 128 | 1.0 | 5.0 | 0.00 | 0.04 | 0.04 | 63 | 1013.7 |
| 20260905203100 | 78 | 111 | 1.0 | 4.0 | 0.00 | 0.04 | 0.04 | 63 | 1013.7 |
| 20260905202241 | 78 | 63 | 2.0 | 6.0 | 0.00 | 0.04 | 0.04 | 63 | 1013.7 |
| 20260905201742 | 78 | 51 | 2.0 | 6.0 | 0.00 | 0.04 | 0.04 | 64 | 1013.7 |
| 20260905201240 | 77 | 78 | 2.0 | 6.0 | 0.00 | 0.04 | 0.04 | 64 | 1013.8 |
| 20260905201053 | 77 | 98 | 2.0 | 6.0 | 0.00 | 0.04 | 0.04 | 63 | 1013.8 |
| 20260905200239 | 77 | 47 | 2.0 | 6.0 | 0.00 | 0.04 | 0.04 | 65 | 1013.8 |
| 20260905195726 | 78 | 70 | 2.0 | 6.0 | 0.00 | 0.04 | 0.04 | 65 | 1013.7 |
| 20260905195227 | 78 | 33 | 3.0 | 7.0 | 0.00 | 0.04 | 0.04 | 63 | 1013.8 |
| 20260905194732 | 78 | 63 | 3.0 | 7.0 | 0.00 | 0.04 | 0.04 | 64 | 1013.7 |
| 20260905194213 | 78 | 87 | 2.0 | 5.0 | 0.00 | 0.04 | 0.04 | 64 | 1014.0 |
| 20260905193710 | 77 | 38 | 2.0 | 5.0 | 0.00 | 0.04 | 0.04 | 66 | 1014.0 |
| 20260905193535 | 77 | 105 | 2.0 | 7.0 | 0.00 | 0.04 | 0.04 | 66 | 1014.0 |
| 20260905192712 | 77 | 92 | 3.0 | 7.0 | 0.00 | 0.04 | 0.04 | 65 | 1014.2 |
| 20260905192209 | 77 | 110 | 4.0 | 9.0 | 0.00 | 0.04 | 0.04 | 66 | 1014.2 |
| 20260905191704 | 77 | 83 | 3.0 | 9.0 | 0.00 | 0.04 | 0.04 | 66 | 1014.2 |
| 20260905191203 | 77 | 117 | 2.0 | 7.0 | 0.00 | 0.04 | 0.04 | 64 | 1014.2 |
| 20260905191030 | 77 | 56 | 3.0 | 7.0 | 0.00 | 0.04 | 0.04 | 66 | 1014.2 |
| 20260905190203 | 77 | 125 | 2.0 | 7.0 | 0.00 | 0.04 | 0.04 | 66 | 1014.2 |
| 20260905185719 | 77 | 81 | 2.0 | 7.0 | 0.00 | 0.04 | 0.04 | 66 | 1014.4 |
| 20260905185206 | 77 | 106 | 2.0 | 7.0 | 0.00 | 0.04 | 0.04 | 65 | 1014.4 |
| 20260905184707 | 77 | 22 | 2.0 | 6.0 | 0.00 | 0.04 | 0.04 | 67 | 1014.4 |
| 20260905184205 | 77 | 126 | 3.0 | 6.0 | 0.00 | 0.04 | 0.04 | 64 | 1014.4 |
| 20260905183702 | 77 | 101 | 2.0 | 4.0 | 0.00 | 0.04 | 0.04 | 65 | 1014.5 |
| 20260905183203 | 77 | 329 | 1.0 | 5.0 | 0.00 | 0.04 | 0.04 | 64 | 1014.5 |
| 20260905182702 | 77 | 24 | 2.0 | 7.0 | 0.00 | 0.04 | 0.04 | 67 | 1014.3 |
| 20260905182202 | 77 | 31 | 3.0 | 7.0 | 0.00 | 0.04 | 0.04 | 64 | 1014.3 |
| 20260905181701 | 77 | 69 | 3.0 | 7.0 | 0.00 | 0.04 | 0.04 | 65 | 1014.3 |
| 20260905181200 | 77 | 115 | 3.0 | 7.0 | 0.00 | 0.04 | 0.04 | 65 | 1014.3 |
| 20260905180658 | 77 | 127 | 3.0 | 8.0 | 0.00 | 0.04 | 0.04 | 67 | 1014.3 |
| 20260905180158 | 78 | 85 | 3.0 | 8.0 | 0.00 | 0.04 | 0.04 | 65 | 1014.3 |
| 20260905175658 | 78 | 61 | 3.0 | 8.0 | 0.00 | 0.04 | 0.04 | 65 | 1014.3 |
| 20260905175155 | 78 | 128 | 3.0 | 11.0 | 0.00 | 0.04 | 0.04 | 65 | 1014.3 |
| 20260905174701 | 77 | 163 | 3.0 | 11.0 | 0.00 | 0.04 | 0.04 | 63 | 1014.3 |
| 20260905174157 | 77 | 61 | 2.0 | 6.0 | 0.00 | 0.04 | 0.04 | 65 | 1014.3 |
| 20260905173651 | 77 | 86 | 3.0 | 7.0 | 0.00 | 0.04 | 0.04 | 66 | 1014.3 |
| 20260905173153 | 78 | 355 | 2.0 | 7.0 | 0.00 | 0.04 | 0.04 | 65 | 1014.3 |
| 20260905173009 | 77 | 347 | 2.0 | 6.0 | 0.00 | 0.04 | 0.04 | 66 | 1014.3 |
| 20260905172149 | 76 | 341 | 4.0 | 11.0 | 0.00 | 0.04 | 0.04 | 68 | 1014.2 |
| 20260905172013 | 76 | 66 | 5.0 | 11.0 | 0.00 | 0.04 | 0.04 | 66 | 1014.2 |
| 20260905171516 | 76 | 113 | 4.0 | 7.0 | 0.00 | 0.04 | 0.04 | 66 | 1014.2 |
| 20260905170639 | 76 | 69 | 4.0 | 7.0 | 0.00 | 0.04 | 0.04 | 67 | 1014.2 |
| 20260905170140 | 76 | 67 | 4.0 | 11.0 | 0.00 | 0.04 | 0.04 | 67 | 1014.2 |
| 20260905170013 | 76 | 120 | 4.0 | 11.0 | 0.00 | 0.04 | 0.04 | 65 | 1014.2 |
| 20260905165134 | 76 | 167 | 4.0 | 10.0 | 0.00 | 0.04 | 0.04 | 68 | 1014.2 |
| 20260905164633 | 76 | 95 | 4.0 | 8.0 | 0.00 | 0.04 | 0.04 | 67 | 1014.2 |
| 20260905164133 | 76 | 123 | 3.0 | 11.0 | 0.00 | 0.04 | 0.04 | 68 | 1014.1 |
| 20260905163629 | 75 | 117 | 3.0 | 12.0 | 0.00 | 0.04 | 0.04 | 72 | 1014.1 |
| 20260905163435 | 74 | 16 | 4.0 | 12.0 | 0.00 | 0.04 | 0.04 | 73 | 1014.0 |
| 20260905162615 | 74 | 114 | 3.0 | 9.0 | 0.00 | 0.04 | 0.04 | 73 | 1014.1 |
| 20260905162115 | 74 | 17 | 3.0 | 10.0 | 0.00 | 0.04 | 0.04 | 75 | 1014.1 |
| 20260905161931 | 74 | 95 | 4.0 | 10.0 | 0.00 | 0.04 | 0.04 | 73 | 1014.1 |
| 20260905161112 | 74 | 151 | 3.0 | 7.0 | 0.00 | 0.04 | 0.04 | 73 | 1014.1 |
| 20260905160612 | 74 | 158 | 3.0 | 8.0 | 0.00 | 0.04 | 0.04 | 73 | 1014.1 |
| 20260905160114 | 74 | 130 | 4.0 | 8.0 | 0.00 | 0.04 | 0.04 | 74 | 1014.1 |
| 20260905155609 | 74 | 109 | 4.0 | 11.0 | 0.00 | 0.04 | 0.04 | 74 | 1014.1 |
| 20260905155423 | 74 | 113 | 3.0 | 11.0 | 0.00 | 0.04 | 0.04 | 75 | 1014.1 |
| 20260905154606 | 74 | 90 | 3.0 | 6.0 | 0.00 | 0.04 | 0.04 | 76 | 1014.1 |
| 20260905154106 | 74 | 78 | 2.0 | 7.0 | 0.00 | 0.04 | 0.04 | 77 | 1014.1 |
| 20260905153603 | 73 | 73 | 4.0 | 8.0 | 0.00 | 0.04 | 0.04 | 77 | 1014.0 |
| 20260905153104 | 73 | 13 | 4.0 | 8.0 | 0.00 | 0.04 | 0.04 | 78 | 1014.0 |
| 20260905152603 | 73 | 90 | 4.0 | 11.0 | 0.00 | 0.04 | 0.04 | 77 | 1013.9 |
| 20260905152424 | 72 | 121 | 3.0 | 11.0 | 0.00 | 0.04 | 0.04 | 78 | 1013.9 |
| 20260905151606 | 72 | 171 | 3.0 | 7.0 | 0.00 | 0.04 | 0.04 | 80 | 1013.8 |
| 20260905151104 | 71 | 50 | 4.0 | 7.0 | 0.00 | 0.04 | 0.04 | 81 | 1013.9 |
| 20260905150605 | 70 | 120 | 4.0 | 7.0 | 0.00 | 0.04 | 0.04 | 82 | 1013.8 |
| 20260905150111 | 70 | 111 | 3.0 | 7.0 | 0.00 | 0.04 | 0.04 | 84 | 1013.8 |
| 20260905145602 | 70 | 71 | 3.0 | 7.0 | 0.00 | 0.04 | 0.04 | 83 | 1013.7 |
| 20260905145102 | 70 | 117 | 3.0 | 7.0 | 0.00 | 0.04 | 0.04 | 84 | 1013.7 |
| 20260905144603 | 69 | 88 | 3.0 | 8.0 | 0.00 | 0.04 | 0.04 | 86 | 1013.7 |
| 20260905144102 | 69 | 45 | 4.0 | 8.0 | 0.00 | 0.04 | 0.04 | 86 | 1013.2 |
| 20260905143602 | 69 | 103 | 3.0 | 7.0 | 0.00 | 0.04 | 0.04 | 87 | 1013.1 |
| 20260905143104 | 68 | 95 | 3.0 | 8.0 | 0.00 | 0.04 | 0.04 | 88 | 1013.1 |
| 20260905142559 | 68 | 130 | 3.0 | 8.0 | 0.00 | 0.05 | 0.04 | 89 | 1013.2 |
| 20260905142056 | 68 | 126 | 3.0 | 6.0 | 0.00 | 0.05 | 0.04 | 89 | 1013.2 |
| 20260905141556 | 67 | 67 | 2.0 | 7.0 | 0.00 | 0.05 | 0.04 | 90 | 1013.2 |
| 20260905141056 | 67 | 73 | 2.0 | 7.0 | 0.00 | 0.05 | 0.04 | 92 | 1013.0 |
| 20260905140906 | 66 | 62 | 2.0 | 5.0 | 0.00 | 0.05 | 0.04 | 93 | 1013.0 |
| 20260905140109 | 66 | 52 | 2.0 | 5.0 | 0.00 | 0.05 | 0.04 | 93 | 1013.0 |
| 20260905135553 | 66 | 93 | 2.0 | 6.0 | 0.00 | 0.05 | 0.04 | 93 | 1013.0 |
| 20260905135409 | 65 | 82 | 3.0 | 6.0 | 0.00 | 0.05 | 0.04 | 93 | 1012.9 |
| 20260905134904 | 65 | 87 | 2.0 | 6.0 | 0.00 | 0.05 | 0.04 | 93 | 1012.9 |
| 20260905134053 | 65 | 134 | 3.0 | 6.0 | 0.00 | 0.05 | 0.04 | 94 | 1012.9 |
| 20260905133545 | 65 | 132 | 3.0 | 6.0 | 0.00 | 0.05 | 0.04 | 94 | 1012.9 |
| 20260905133048 | 65 | 196 | 2.0 | 7.0 | 0.00 | 0.05 | 0.04 | 94 | 1012.9 |
| 20260905132548 | 65 | 114 | 2.0 | 7.0 | 0.00 | 0.05 | 0.04 | 94 | 1012.8 |
| 20260905132045 | 65 | 107 | 2.0 | 7.0 | 0.01 | 0.05 | 0.04 | 94 | 1012.8 |
| 20260905131547 | 65 | 117 | 3.0 | 7.0 | 0.01 | 0.05 | 0.04 | 94 | 1012.8 |
| 20260905131045 | 65 | 101 | 2.0 | 6.0 | 0.01 | 0.05 | 0.04 | 94 | 1012.9 |
| 20260905130547 | 65 | 113 | 1.0 | 5.0 | 0.01 | 0.05 | 0.04 | 95 | 1012.9 |
| 20260905130348 | 65 | 120 | 1.0 | 5.0 | 0.01 | 0.05 | 0.04 | 95 | 1012.9 |
| 20260905125851 | 65 | 74 | 1.0 | 5.0 | 0.02 | 0.05 | 0.04 | 94 | 1012.8 |
| 20260905125349 | 65 | 100 | 1.0 | 5.0 | 0.04 | 0.05 | 0.04 | 95 | 1012.8 |
| 20260905124536 | 65 | 69 | 0.0 | 2.0 | 0.04 | 0.05 | 0.04 | 95 | 1012.8 |
| 20260905124019 | 65 | 32 | 1.0 | 2.0 | 0.04 | 0.05 | 0.04 | 95 | 1012.5 |
| 20260905123514 | 64 | 32 | 1.0 | 2.0 | 0.04 | 0.06 | 0.04 | 94 | 1012.5 |
| 20260905123009 | 64 | 42 | 0.0 | 2.0 | 0.04 | 0.06 | 0.04 | 94 | 1012.4 |
| 20260905122507 | 64 | 82 | 1.0 | 6.0 | 0.04 | 0.06 | 0.04 | 94 | 1012.4 |
| 20260905121949 | 64 | 82 | 1.0 | 6.0 | 0.03 | 0.06 | 0.03 | 94 | 1012.4 |
| 20260905121757 | 64 | 9 | 1.0 | 5.0 | 0.03 | 0.07 | 0.03 | 94 | 1012.4 |
| 20260905120951 | 64 | 72 | 1.0 | 5.0 | 0.03 | 0.07 | 0.03 | 94 | 1012.4 |
| 20260905120451 | 65 | 60 | 1.0 | 4.0 | 0.03 | 0.08 | 0.03 | 94 | 1012.4 |
| 20260905115948 | 65 | 25 | 0.0 | 1.0 | 0.03 | 0.09 | 0.03 | 94 | 1012.4 |
| 20260905115436 | 65 | 32 | 0.0 | 3.0 | 0.02 | 0.10 | 0.02 | 94 | 1012.4 |
| 20260905115107 | 65 | 52 | 1.0 | 5.0 | 0.00 | 0.09 | 0.00 | 93 | 1012.4 |
| 20260905115035 | 65 | 32 | 1.0 | 5.0 | 0.00 | 0.08 | 0.00 | 93 | 1012.4 |
| 20260905114232 | 65 | 100 | 1.0 | 5.0 | 0.00 | 0.10 | 0.00 | 93 | 1012.4 |
| 20260905113735 | 65 | 87 | 1.0 | 6.0 | 0.00 | 0.12 | 0.00 | 93 | 1012.4 |
| 20260905113222 | 65 | 47 | 2.0 | 6.0 | 0.00 | 0.12 | 0.00 | 92 | 1012.4 |
| 20260905112356 | 65 | 110 | 1.0 | 5.0 | 0.00 | 0.14 | 0.00 | 92 | 1012.4 |
| 20260905112213 | 65 | 96 | 1.0 | 5.0 | 0.00 | 0.15 | 0.00 | 92 | 1012.4 |
| 20260905111351 | 65 | 26 | 1.0 | 5.0 | 0.00 | 0.16 | 0.00 | 92 | 1012.3 |
| 20260905110853 | 65 | 5 | 0.0 | 2.0 | 0.00 | 0.16 | 0.00 | 92 | 1012.3 |
| 20260905110344 | 65 | 52 | 1.0 | 6.0 | 0.00 | 0.16 | 0.00 | 92 | 1012.4 |
| 20260905105844 | 65 | 53 | 1.0 | 6.0 | 0.00 | 0.17 | 0.00 | 92 | 1012.1 |
| 20260905105345 | 66 | 62 | 0.0 | 3.0 | 0.00 | 0.18 | 0.00 | 92 | 1012.1 |
| 20260905104846 | 66 | 105 | 0.0 | 2.0 | 0.00 | 0.19 | 0.00 | 92 | 1012.1 |
| 20260905104344 | 66 | 39 | 0.0 | 2.0 | 0.00 | 0.20 | 0.00 | 92 | 1012.1 |
| 20260905103845 | 66 | 39 | 0.0 | 2.0 | 0.00 | 0.21 | 0.00 | 91 | 1012.1 |
| 20260905103330 | 66 | 38 | 0.0 | 1.0 | 0.00 | 0.22 | 0.00 | 91 | 1012.1 |
| 20260905102814 | 66 | 39 | 0.0 | 3.0 | 0.00 | 0.22 | 0.00 | 91 | 1012.1 |
| 20260905102314 | 66 | 90 | 0.0 | 2.0 | 0.00 | 0.23 | 0.00 | 91 | 1012.1 |
| 20260905101816 | 66 | 71 | 1.0 | 5.0 | 0.00 | 0.23 | 0.00 | 91 | 1012.1 |
| 20260905101308 | 66 | 71 | 1.0 | 5.0 | 0.00 | 0.24 | 0.00 | 91 | 1011.9 |
| 20260905100806 | 66 | 56 | 0.0 | 4.0 | 0.00 | 0.24 | 0.00 | 91 | 1011.9 |
| 20260905100258 | 66 | 90 | 1.0 | 5.0 | 0.00 | 0.24 | 0.00 | 91 | 1011.9 |
| 20260905095755 | 66 | 128 | 1.0 | 5.0 | 0.00 | 0.24 | 0.00 | 91 | 1012.2 |
| 20260905095254 | 66 | 111 | 0.0 | 5.0 | 0.00 | 0.24 | 0.00 | 92 | 1012.2 |
| 20260905094754 | 66 | 38 | 0.0 | 1.0 | 0.00 | 0.24 | 0.00 | 92 | 1012.2 |
| 20260905094252 | 66 | 38 | 0.0 | 2.0 | 0.00 | 0.24 | 0.00 | 92 | 1011.9 |
| 20260905094051 | 66 | 38 | 0.0 | 2.0 | 0.00 | 0.24 | 0.00 | 92 | 1011.9 |
| 20260905093533 | 66 | 37 | 0.0 | 0.0 | 0.00 | 0.24 | 0.00 | 92 | 1011.9 |
| 20260905092719 | 66 | 37 | 0.0 | 1.0 | 0.00 | 0.24 | 0.00 | 91 | 1011.8 |
| 20260905092210 | 66 | 37 | 0.0 | 4.0 | 0.00 | 0.24 | 0.00 | 91 | 1011.8 |
| 20260905091707 | 66 | 148 | 1.0 | 4.0 | 0.00 | 0.24 | 0.00 | 91 | 1011.8 |
| 20260905091210 | 66 | 121 | 0.0 | 2.0 | 0.00 | 0.24 | 0.00 | 91 | 1011.7 |
| 20260905090707 | 66 | 91 | 0.0 | 2.0 | 0.00 | 0.24 | 0.00 | 91 | 1011.7 |
| 20260905090210 | 66 | 91 | 0.0 | 2.0 | 0.00 | 0.24 | 0.00 | 91 | 1011.7 |
| 20260905085711 | 66 | 91 | 0.0 | 1.0 | 0.00 | 0.24 | 0.00 | 91 | 1011.8 |
| 20260905085524 | 66 | 90 | 0.0 | 1.0 | 0.00 | 0.24 | 0.00 | 91 | 1011.8 |
| 20260905084659 | 66 | 90 | 0.0 | 2.0 | 0.00 | 0.24 | 0.00 | 91 | 1011.8 |
| 20260905084150 | 66 | 90 | 0.0 | 3.0 | 0.00 | 0.24 | 0.00 | 91 | 1011.5 |
| 20260905083649 | 66 | 60 | 0.0 | 3.0 | 0.00 | 0.24 | 0.00 | 90 | 1011.5 |
| 20260905083507 | 66 | 74 | 0.0 | 3.0 | 0.00 | 0.24 | 0.00 | 90 | 1011.5 |
| 20260905082642 | 66 | 70 | 0.0 | 4.0 | 0.00 | 0.24 | 0.00 | 91 | 1011.6 |
| 20260905082124 | 66 | 70 | 0.0 | 4.0 | 0.00 | 0.24 | 0.00 | 90 | 1011.6 |
| 20260905081620 | 66 | 122 | 0.0 | 1.0 | 0.00 | 0.24 | 0.00 | 91 | 1011.6 |
| 20260905081116 | 66 | 122 | 0.0 | 2.0 | 0.00 | 0.24 | 0.00 | 91 | 1011.7 |
| 20260905080609 | 66 | 122 | 0.0 | 2.0 | 0.00 | 0.24 | 0.00 | 90 | 1011.7 |
| 20260905080106 | 66 | 126 | 1.0 | 4.0 | 0.00 | 0.24 | 0.00 | 90 | 1011.7 |
| 20260905075559 | 67 | 126 | 1.0 | 4.0 | 0.00 | 0.24 | 0.00 | 90 | 1011.5 |
| 20260905075058 | 67 | 125 | 1.0 | 4.0 | 0.00 | 0.24 | 0.00 | 90 | 1011.5 |
| 20260905074553 | 67 | 110 | 2.0 | 4.0 | 0.00 | 0.24 | 0.00 | 90 | 1011.5 |
| 20260905074054 | 67 | 124 | 1.0 | 4.0 | 0.00 | 0.24 | 0.00 | 90 | 1011.4 |
| 20260905073544 | 67 | 144 | 1.0 | 4.0 | 0.00 | 0.24 | 0.00 | 89 | 1011.4 |
| 20260905073043 | 67 | 128 | 1.0 | 4.0 | 0.00 | 0.24 | 0.00 | 90 | 1011.4 |
| 20260905072539 | 67 | 101 | 1.0 | 5.0 | 0.00 | 0.24 | 0.00 | 89 | 1011.6 |
| 20260905072038 | 67 | 104 | 1.0 | 4.0 | 0.00 | 0.24 | 0.00 | 89 | 1011.6 |
| 20260905071542 | 67 | 87 | 0.0 | 3.0 | 0.00 | 0.24 | 0.00 | 89 | 1011.6 |
| 20260905071341 | 67 | 88 | 1.0 | 3.0 | 0.00 | 0.24 | 0.00 | 89 | 1011.6 |
| 20260905070520 | 67 | 355 | 0.0 | 3.0 | 0.00 | 0.24 | 0.00 | 89 | 1011.6 |
| 20260905070017 | 67 | 85 | 1.0 | 5.0 | 0.00 | 0.24 | 0.00 | 89 | 1011.6 |
| 20260905065513 | 67 | 123 | 1.0 | 5.0 | 0.00 | 0.24 | 0.00 | 89 | 1011.6 |
| 20260905065013 | 67 | 129 | 1.0 | 4.0 | 0.00 | 0.24 | 0.00 | 89 | 1011.6 |
| 20260905064508 | 67 | 140 | 0.0 | 2.0 | 0.00 | 0.24 | 0.00 | 89 | 1011.6 |
| 20260905064006 | 67 | 144 | 0.0 | 2.0 | 0.00 | 0.24 | 0.00 | 89 | 1011.6 |
| 20260905063507 | 67 | 144 | 1.0 | 4.0 | 0.00 | 0.24 | 0.00 | 89 | 1011.6 |
| 20260905063007 | 67 | 140 | 1.0 | 4.0 | 0.00 | 0.24 | 0.00 | 89 | 1011.8 |
| 20260905062507 | 67 | 71 | 1.0 | 3.0 | 0.00 | 0.24 | 0.00 | 89 | 1011.8 |
| 20260905062007 | 67 | 62 | 1.0 | 3.0 | 0.00 | 0.24 | 0.00 | 89 | 1011.8 |
| 20260905061508 | 67 | 63 | 1.0 | 3.0 | 0.00 | 0.24 | 0.00 | 89 | 1012.0 |
| 20260905061001 | 67 | 59 | 1.0 | 3.0 | 0.00 | 0.24 | 0.00 | 89 | 1012.0 |
| 20260905060500 | 67 | 59 | 1.0 | 4.0 | 0.00 | 0.24 | 0.00 | 89 | 1012.0 |
| 20260905055959 | 67 | 100 | 1.0 | 4.0 | 0.00 | 0.24 | 0.00 | 89 | 1011.9 |
| 20260905055459 | 67 | 86 | 1.0 | 4.0 | 0.00 | 0.24 | 0.00 | 89 | 1011.9 |
| 20260905054958 | 68 | 46 | 1.0 | 5.0 | 0.00 | 0.24 | 0.00 | 89 | 1011.9 |
| 20260905054453 | 68 | 46 | 1.0 | 5.0 | 0.00 | 0.24 | 0.00 | 89 | 1011.9 |
| 20260905053946 | 68 | 102 | 1.0 | 4.0 | 0.00 | 0.24 | 0.00 | 89 | 1011.9 |
| 20260905053800 | 68 | 59 | 1.0 | 5.0 | 0.00 | 0.24 | 0.00 | 90 | 1011.9 |
| 20260905052935 | 68 | 0 | 1.0 | 5.0 | 0.00 | 0.24 | 0.00 | 90 | 1011.9 |
| 20260905052431 | 68 | 30 | 0.0 | 2.0 | 0.00 | 0.24 | 0.00 | 90 | 1012.0 |
| 20260905051916 | 68 | 5 | 1.0 | 4.0 | 0.00 | 0.24 | 0.00 | 90 | 1012.0 |
| 20260905051412 | 68 | 119 | 2.0 | 4.0 | 0.00 | 0.24 | 0.00 | 90 | 1012.2 |
| 20260905050904 | 68 | 82 | 2.0 | 5.0 | 0.00 | 0.24 | 0.00 | 90 | 1012.2 |
| 20260905050351 | 69 | 107 | 1.0 | 5.0 | 0.00 | 0.24 | 0.00 | 90 | 1012.2 |
| 20260905045848 | 69 | 63 | 0.0 | 3.0 | 0.00 | 0.24 | 0.00 | 91 | 1012.2 |
| 20260905045506 | 69 | 76 | 0.0 | 1.0 | 0.00 | 0.24 | 0.00 | 90 | 1012.2 |
| 20260905045436 | 69 | 76 | 0.0 | 0.0 | 0.00 | 0.24 | 0.00 | 91 | 1012.2 |
| 20260905044306 | 69 | 76 | 0.0 | 2.0 | 0.00 | 0.24 | 0.00 | 90 | 1012.1 |
| 20260905043807 | 69 | 76 | 1.0 | 4.0 | 0.00 | 0.24 | 0.00 | 90 | 1012.1 |
| 20260905043300 | 69 | 64 | 2.0 | 4.0 | 0.00 | 0.24 | 0.00 | 90 | 1012.1 |
| 20260905042802 | 69 | 86 | 2.0 | 4.0 | 0.00 | 0.24 | 0.00 | 90 | 1012.1 |
| 20260905042607 | 69 | 61 | 2.0 | 4.0 | 0.00 | 0.24 | 0.00 | 90 | 1012.1 |
| 20260905041939 | 69 | 102 | 3.0 | 6.0 | 0.00 | 0.24 | 0.00 | 91 | 1012.3 |
| 20260905041905 | 69 | 93 | 2.0 | 6.0 | 0.00 | 0.24 | 0.00 | 90 | 1012.1 |
| 20260905040758 | 69 | 111 | 3.0 | 6.0 | 0.00 | 0.24 | 0.00 | 91 | 1012.3 |
| 20260905040256 | 69 | 125 | 2.0 | 6.0 | 0.00 | 0.24 | 0.00 | 92 | 1012.3 |
| 20260905035757 | 69 | 140 | 2.0 | 7.0 | 0.00 | 0.24 | 0.24 | 93 | 1012.4 |
| 20260905035253 | 69 | 93 | 3.0 | 7.0 | 0.00 | 0.24 | 0.24 | 93 | 1012.4 |
| 20260905034751 | 69 | 72 | 3.0 | 7.0 | 0.00 | 0.24 | 0.24 | 93 | 1012.4 |
| 20260905034247 | 70 | 113 | 4.0 | 8.0 | 0.00 | 0.24 | 0.24 | 92 | 1012.6 |
| 20260905034103 | 70 | 115 | 3.0 | 8.0 | 0.00 | 0.24 | 0.24 | 92 | 1012.6 |
| 20260905033243 | 70 | 112 | 2.0 | 7.0 | 0.00 | 0.24 | 0.24 | 92 | 1012.6 |
| 20260905032742 | 70 | 80 | 1.0 | 5.0 | 0.00 | 0.24 | 0.24 | 92 | 1012.6 |
| 20260905032242 | 70 | 92 | 2.0 | 5.0 | 0.00 | 0.24 | 0.24 | 92 | 1012.6 |
| 20260905031735 | 70 | 148 | 3.0 | 8.0 | 0.00 | 0.24 | 0.24 | 92 | 1012.6 |
| 20260905031210 | 71 | 113 | 3.0 | 8.0 | 0.00 | 0.24 | 0.24 | 92 | 1012.7 |
| 20260905030706 | 71 | 158 | 3.0 | 8.0 | 0.00 | 0.24 | 0.24 | 92 | 1012.7 |
| 20260905030220 | 71 | 141 | 3.0 | 8.0 | 0.00 | 0.24 | 0.24 | 92 | 1012.7 |
| 20260905025708 | 71 | 130 | 3.0 | 6.0 | 0.00 | 0.24 | 0.24 | 92 | 1012.7 |
| 20260905025208 | 71 | 116 | 3.0 | 7.0 | 0.00 | 0.24 | 0.24 | 92 | 1012.7 |
| 20260905024717 | 71 | 88 | 2.0 | 7.0 | 0.00 | 0.24 | 0.24 | 92 | 1012.7 |
| 20260905024206 | 72 | 96 | 2.0 | 7.0 | 0.00 | 0.24 | 0.24 | 92 | 1012.4 |
| 20260905023705 | 72 | 106 | 2.0 | 7.0 | 0.00 | 0.24 | 0.24 | 92 | 1012.4 |
| 20260905023201 | 72 | 73 | 2.0 | 7.0 | 0.00 | 0.24 | 0.24 | 92 | 1012.4 |
| 20260905022701 | 72 | 119 | 2.0 | 7.0 | 0.00 | 0.24 | 0.24 | 92 | 1012.2 |
| 20260905022200 | 72 | 134 | 3.0 | 7.0 | 0.00 | 0.24 | 0.24 | 92 | 1012.3 |
| 20260905021659 | 73 | 127 | 3.0 | 6.0 | 0.00 | 0.24 | 0.24 | 91 | 1012.3 |
| 20260905021201 | 73 | 68 | 1.0 | 6.0 | 0.00 | 0.24 | 0.24 | 91 | 1012.3 |
| 20260905020658 | 73 | 104 | 0.0 | 4.0 | 0.00 | 0.24 | 0.24 | 91 | 1012.3 |
| 20260905020156 | 73 | 103 | 0.0 | 4.0 | 0.00 | 0.24 | 0.24 | 91 | 1012.3 |
| 20260905015652 | 73 | 104 | 0.0 | 2.0 | 0.00 | 0.24 | 0.24 | 91 | 1012.3 |
| 20260905015151 | 73 | 99 | 0.0 | 4.0 | 0.00 | 0.24 | 0.24 | 90 | 1012.3 |
| 20260905014646 | 73 | 88 | 1.0 | 4.0 | 0.00 | 0.24 | 0.24 | 90 | 1012.3 |
| 20260905014145 | 73 | 142 | 1.0 | 5.0 | 0.00 | 0.24 | 0.24 | 90 | 1012.1 |
| 20260905013644 | 74 | 142 | 2.0 | 6.0 | 0.00 | 0.24 | 0.24 | 90 | 1012.2 |
| 20260905013140 | 74 | 179 | 2.0 | 6.0 | 0.00 | 0.24 | 0.24 | 90 | 1012.2 |
| 20260905012809 | 74 | 121 | 1.0 | 4.0 | 0.00 | 0.24 | 0.24 | 89 | 1012.1 |
| 20260905012735 | 74 | 123 | 1.0 | 4.0 | 0.00 | 0.24 | 0.24 | 89 | 1012.1 |
| 20260905011633 | 74 | 124 | 1.0 | 5.0 | 0.00 | 0.24 | 0.24 | 89 | 1012.1 |
| 20260905011429 | 74 | 154 | 2.0 | 5.0 | 0.00 | 0.24 | 0.24 | 89 | 1011.9 |
| 20260905010607 | 74 | 101 | 1.0 | 5.0 | 0.00 | 0.24 | 0.24 | 89 | 1011.9 |
| 20260905010111 | 74 | 119 | 1.0 | 5.0 | 0.00 | 0.24 | 0.24 | 89 | 1011.9 |
| 20260905005606 | 74 | 123 | 0.0 | 5.0 | 0.00 | 0.24 | 0.24 | 89 | 1011.9 |
| 20260905005105 | 75 | 107 | 0.0 | 0.0 | 0.00 | 0.24 | 0.24 | 89 | 1011.9 |
| 20260905004551 | 75 | 92 | 0.0 | 0.0 | 0.00 | 0.24 | 0.24 | 89 | 1011.9 |
| 20260905004046 | 75 | 92 | 0.0 | 0.0 | 0.00 | 0.24 | 0.24 | 89 | 1012.0 |
| 20260905003521 | 75 | 92 | 0.0 | 0.0 | 0.00 | 0.24 | 0.24 | 89 | 1012.0 |
| 20260905003012 | 75 | 92 | 0.0 | 0.0 | 0.00 | 0.24 | 0.24 | 88 | 1012.1 |
| 20260905002506 | 75 | 88 | 0.0 | 0.0 | 0.00 | 0.24 | 0.24 | 88 | 1012.0 |
| 20260905002256 | 75 | 88 | 0.0 | 0.0 | 0.00 | 0.24 | 0.24 | 88 | 1012.0 |
| 20260905001439 | 76 | 88 | 0.0 | 0.0 | 0.00 | 0.24 | 0.24 | 88 | 1011.9 |
| 20260905000933 | 76 | 88 | 0.0 | 0.0 | 0.00 | 0.24 | 0.24 | 87 | 1011.9 |
| 20260905000432 | 76 | 88 | 0.0 | 0.0 | 0.00 | 0.24 | 0.24 | 87 | 1011.9 |
| 20260905000237 | 76 | 88 | 0.0 | 0.0 | 0.00 | 0.24 | 0.24 | 87 | 1011.9 |
| 20260904235417 | 76 | 88 | 0.0 | 0.0 | 0.00 | 0.24 | 0.24 | 87 | 1012.0 |
| 20260904234958 | 77 | 88 | 0.0 | 0.0 | 0.00 | 0.24 | 0.24 | 86 | 1011.9 |
| 20260904234937 | 76 | 88 | 0.0 | 0.0 | 0.00 | 0.24 | 0.24 | 86 | 1012.0 |
| 20260904233908 | 77 | 88 | 0.0 | 0.0 | 0.00 | 0.24 | 0.24 | 84 | 1011.9 |
| 20260904233406 | 77 | 88 | 0.0 | 0.0 | 0.00 | 0.24 | 0.24 | 84 | 1011.9 |
| 20260904232902 | 77 | 88 | 0.0 | 0.0 | 0.00 | 0.24 | 0.24 | 84 | 1011.9 |
| 20260904232359 | 77 | 88 | 0.0 | 0.0 | 0.00 | 0.24 | 0.24 | 83 | 1011.9 |
| 20260904231858 | 77 | 141 | 0.0 | 0.0 | 0.00 | 0.24 | 0.24 | 83 | 1011.9 |
| 20260904231358 | 77 | 141 | 0.0 | 0.0 | 0.00 | 0.24 | 0.24 | 82 | 1011.8 |
| 20260904231202 | 78 | 141 | 0.0 | 0.0 | 0.00 | 0.24 | 0.24 | 82 | 1011.8 |
| 20260904230342 | 78 | 141 | 0.0 | 0.0 | 0.00 | 0.24 | 0.24 | 82 | 1011.8 |
| 20260904225834 | 78 | 141 | 0.0 | 0.0 | 0.00 | 0.24 | 0.24 | 81 | 1011.6 |
| 20260904225330 | 78 | 141 | 0.0 | 0.0 | 0.00 | 0.24 | 0.24 | 81 | 1011.6 |
| 20260904225120 | 78 | 141 | 0.0 | 0.0 | 0.00 | 0.24 | 0.24 | 80 | 1011.6 |
| 20260904224306 | 78 | 141 | 0.0 | 0.0 | 0.00 | 0.24 | 0.24 | 80 | 1011.3 |
| 20260904224144 | 78 | 141 | 0.0 | 0.0 | 0.00 | 0.24 | 0.24 | 80 | 1011.3 |
| 20260904223304 | 78 | 141 | 0.0 | 0.0 | 0.00 | 0.24 | 0.24 | 78 | 1011.3 |
| 20260904222756 | 78 | 141 | 0.0 | 0.0 | 0.00 | 0.24 | 0.24 | 80 | 1011.2 |
| 20260904222251 | 78 | 141 | 0.0 | 0.0 | 0.00 | 0.24 | 0.24 | 79 | 1011.2 |
| 20260904222058 | 78 | 141 | 0.0 | 0.0 | 0.00 | 0.24 | 0.24 | 78 | 1011.2 |
| 20260904221246 | 78 | 141 | 0.0 | 0.0 | 0.00 | 0.24 | 0.24 | 78 | 1011.1 |
| 20260904220747 | 78 | 141 | 0.0 | 0.0 | 0.00 | 0.24 | 0.24 | 80 | 1011.1 |
| 20260904220246 | 78 | 141 | 0.0 | 0.0 | 0.00 | 0.24 | 0.24 | 78 | 1011.1 |
| 20260904215744 | 78 | 141 | 0.0 | 0.0 | 0.00 | 0.24 | 0.24 | 79 | 1011.1 |
| 20260904215600 | 78 | 141 | 0.0 | 1.0 | 0.00 | 0.24 | 0.24 | 77 | 1011.1 |
| 20260904214736 | 78 | 141 | 0.0 | 1.0 | 0.00 | 0.24 | 0.24 | 78 | 1011.1 |
| 20260904214227 | 78 | 141 | 0.0 | 2.0 | 0.00 | 0.24 | 0.24 | 78 | 1011.1 |
| 20260904213723 | 78 | 141 | 0.0 | 2.0 | 0.00 | 0.24 | 0.24 | 77 | 1011.1 |
| 20260904213220 | 78 | 141 | 0.0 | 2.0 | 0.00 | 0.24 | 0.24 | 78 | 1011.1 |
| 20260904212712 | 78 | 141 | 1.0 | 2.0 | 0.00 | 0.24 | 0.24 | 77 | 1011.3 |
| 20260904212209 | 78 | 141 | 1.0 | 2.0 | 0.00 | 0.24 | 0.24 | 76 | 1011.3 |
| 20260904211712 | 78 | 123 | 1.0 | 4.0 | 0.00 | 0.24 | 0.24 | 77 | 1011.3 |
| 20260904211210 | 78 | 123 | 1.0 | 4.0 | 0.00 | 0.24 | 0.24 | 76 | 1011.6 |
| 20260904210706 | 78 | 194 | 0.0 | 2.0 | 0.00 | 0.24 | 0.24 | 76 | 1011.6 |
| 20260904210220 | 78 | 195 | 0.0 | 0.0 | 0.00 | 0.24 | 0.24 | 77 | 1011.6 |
| 20260904205708 | 78 | 195 | 0.0 | 0.0 | 0.00 | 0.24 | 0.24 | 78 | 1011.6 |
| 20260904205201 | 78 | 195 | 0.0 | 2.0 | 0.00 | 0.24 | 0.24 | 77 | 1011.6 |